Date,TemperatureHighF,TemperatureAvgF,TemperatureLowF,DewpointHighF,DewpointAvgF,DewpointLowF,HumidityHigh,HumidityAvg,HumidityLow,PressureMaxIn,PressureMinIn,WindSpeedMaxMPH,WindSpeedAvgMPH,GustSpeedMaxMPH,PrecipitationSumIn
2012-5-9,70,64,60,25,21,17,23,19,17,0.00,40.00,28,17,40,0.00
2012-5-10,63,60,56,25,16,-6,28,19,7,0.00,40.00,37,26,44,0.00
2012-5-11,64,58,54,34,13,-9,37,19,6,0.00,40.00,39,22,43,0.00
2012-5-12,71,67,62,25,17,-11,19,15,4,0.00,40.00,24,7,26,0.00
2012-5-13,76,70,63,29,9,-12,18,10,4,0.00,40.00,28,12,30,0.00
2012-5-14,76,70,62,40,18,-15,38,17,3,0.00,40.00,26,9,30,0.00
2012-5-15,65,62,57,29,4,-22,29,12,3,0.00,40.00,37,23,50,0.01
2012-5-16,77,70,62,28,18,10,20,14,11,0.00,40.00,30,11,38,0.00
2012-5-17,73,66,51,32,21,2,42,20,7,0.00,40.00,55,22,63,0.01
2012-5-18,61,52,47,35,20,2,53,30,14,0.00,40.00,58,34,68,0.05
2012-5-19,71,64,59,27,23,18,26,20,17,0.00,40.00,15,7,21,0.00
2012-5-20,73,67,63,40,26,20,39,21,16,0.00,40.00,15,8,24,0.00
2012-5-21,75,69,65,39,26,-16,32,21,3,0.00,40.00,36,13,39,0.00
2012-5-22,70,65,60,34,18,-8,29,19,5,0.00,40.00,39,21,43,0.01
2012-5-23,63,59,56,34,30,27,40,32,25,0.00,40.00,52,36,59,0.01
2012-5-24,68,59,49,48,32,16,74,38,18,0.00,40.00,52,17,58,0.00
2012-5-25,51,40,29,37,31,23,92,74,35,0.00,40.00,60,38,73,0.57
2012-5-26,40,36,31,32,29,25,95,76,55,0.00,40.00,40,33,49,0.05
2012-5-27,56,48,38,29,24,19,68,40,24,0.00,40.00,29,10,39,0.00
2012-5-28,67,58,53,37,24,19,48,27,20,0.00,40.00,17,7,20,0.00
2012-5-29,72,61,56,43,29,-16,49,32,4,0.00,40.00,18,10,23,0.00
2012-5-30,66,62,56,37,24,3,37,24,9,0.00,40.00,27,16,33,0.00
2012-5-31,79,72,64,33,22,15,23,16,10,0.00,40.00,18,8,24,0.00
2012-6-1,74,70,64,30,21,3,25,16,8,0.00,40.00,43,23,47,0.00
2012-6-2,67,64,60,32,21,3,31,20,9,0.00,40.00,44,27,47,0.00
2012-6-3,71,64,57,45,34,24,47,34,23,0.00,40.00,21,9,34,0.01
2012-6-4,68,60,50,42,36,25,64,41,24,0.00,40.00,38,17,53,0.00
2012-6-5,56,50,43,40,28,-20,90,48,4,0.00,40.00,43,33,68,0.04
2012-6-6,67,61,54,41,20,-30,43,23,2,0.00,40.00,29,7,33,0.00
2012-6-7,72,65,60,39,23,16,39,21,15,0.00,40.00,15,7,21,0.00
2012-6-8,71,64,58,43,30,15,46,28,16,0.00,40.00,23,10,26,0.00
2012-6-9,61,59,57,40,26,-29,48,32,3,0.00,40.00,40,27,44,0.00
2012-6-10,69,64,59,25,13,-29,21,16,2,0.00,40.00,27,9,32,0.00
2012-6-11,76,68,63,33,23,11,27,18,12,0.00,40.00,14,6,21,0.00
2012-6-12,75,70,65,36,32,20,29,24,20,0.00,40.00,25,8,30,0.00
2012-6-13,69,66,63,30,18,6,26,17,9,0.00,40.00,32,19,32,0.00
2012-6-14,74,67,61,48,27,11,45,23,13,0.00,40.00,29,10,31,0.00
2012-6-15,68,64,61,42,35,24,42,34,21,0.00,40.00,22,9,24,0.00
2012-6-16,64,61,57,42,33,25,57,35,23,0.00,40.00,24,16,31,0.00
2012-6-17,79,71,64,41,24,-3,33,18,5,0.00,40.00,35,13,40,0.00
2012-6-18,72,68,61,31,15,4,22,14,8,0.00,40.00,39,26,50,0.01
2012-6-19,66,61,57,24,15,11,22,17,13,0.00,40.00,55,43,64,0.04
2012-6-20,80,71,66,41,23,5,32,17,8,0.00,40.00,32,13,41,0.00
2012-6-21,72,68,60,35,22,-3,31,19,5,0.00,40.00,47,15,50,0.01
2012-6-22,63,59,54,30,19,9,35,22,14,0.00,40.00,45,31,54,0.00
2012-6-23,68,60,55,34,22,9,34,23,15,0.00,40.00,46,24,56,0.01
2012-6-24,76,67,58,36,11,-16,24,12,3,0.00,40.00,34,16,38,0.01
2012-6-25,74,64,57,37,24,-3,31,22,7,0.00,40.00,40,23,44,0.01
2012-6-26,75,65,58,29,10,-6,26,12,6,0.00,40.00,33,14,39,0.02
2012-6-27,76,70,63,39,18,-2,28,15,6,0.00,40.00,36,17,39,0.00
2012-6-28,77,71,65,43,34,6,42,27,10,0.00,40.00,30,15,43,0.01
2012-6-29,73,68,62,30,16,-2,23,15,6,0.00,40.00,40,21,46,0.00
2012-6-30,70,66,62,22,13,-5,19,13,6,0.00,40.00,36,26,42,0.00
2012-7-1,69,64,60,39,26,10,40,24,12,0.00,40.00,35,23,39,0.00
2012-7-2,77,70,64,46,34,14,43,27,14,0.00,40.00,23,7,25,0.00
2012-7-3,73,68,64,55,43,21,63,43,16,0.00,40.00,14,7,20,0.00
2012-7-4,66,63,59,57,51,41,77,64,51,0.00,40.00,12,5,17,0.01
2012-7-5,72,65,58,51,45,34,76,50,34,0.00,40.00,14,7,17,0.00
2012-7-6,74,68,63,46,37,17,50,35,12,0.00,40.00,30,10,34,0.00
2012-7-7,73,68,65,36,31,24,30,25,22,0.00,40.00,32,21,38,0.00
2012-7-8,77,70,65,38,31,23,27,24,19,0.00,40.00,36,18,41,0.00
2012-7-9,85,78,73,41,37,34,32,23,17,0.00,40.00,24,10,27,0.01
2012-7-10,87,79,74,43,38,34,29,23,18,0.00,40.00,27,11,32,0.00
2012-7-11,84,78,74,50,41,32,39,27,19,0.00,40.00,22,7,30,0.00
2012-7-12,75,65,60,58,51,40,93,63,28,0.00,40.00,40,10,50,0.03
2012-7-13,68,64,60,59,52,41,95,69,38,0.00,40.00,11,7,19,0.31
2012-7-14,71,66,61,62,55,45,90,69,48,0.00,40.00,13,6,15,0.00
2012-7-15,73,67,63,54,43,17,70,44,16,0.00,40.00,37,12,42,0.00
2012-7-16,66,62,57,37,21,1,40,22,10,0.00,40.00,41,20,48,0.11
2012-7-17,64,58,54,38,27,3,43,31,11,0.00,40.00,39,23,48,0.03
2012-7-18,76,66,57,41,31,20,41,28,16,0.00,40.00,41,15,42,0.00
2012-7-19,76,70,64,47,40,30,50,35,23,0.00,40.00,20,10,23,0.00
2012-7-20,75,71,67,48,45,42,47,40,35,0.00,40.00,15,8,19,0.00
2012-7-21,81,74,70,53,49,45,48,41,36,0.00,40.00,11,4,20,0.00
2012-7-22,77,72,69,58,54,50,64,53,46,0.00,40.00,8,5,15,0.00
2012-7-23,74,71,67,57,51,25,64,51,20,0.00,40.00,24,8,25,0.00
2012-7-24,74,70,67,45,21,-1,42,17,6,0.00,40.00,32,20,37,0.00
2012-7-25,78,68,64,38,28,2,33,23,8,0.00,40.00,34,20,36,0.00
2012-7-26,74,68,63,34,26,20,31,21,15,0.00,40.00,33,23,39,0.00
2012-7-27,74,68,63,27,18,-7,25,16,5,0.00,40.00,39,22,41,0.00
2012-7-28,80,75,71,28,10,-8,17,9,4,0.00,40.00,27,11,29,0.00
2012-7-29,76,72,68,55,43,11,60,38,9,0.00,40.00,13,6,16,0.00
2012-7-30,68,64,60,62,55,47,94,76,55,0.00,40.00,16,8,22,0.24
2012-7-31,67,63,61,59,51,22,80,66,20,0.00,40.00,25,12,26,0.01
2012-8-1,72,66,63,52,45,38,55,46,33,0.00,40.00,21,8,24,0.00
2012-8-2,77,71,67,52,50,48,56,47,41,0.00,40.00,15,7,15,0.00
2012-8-3,79,72,68,50,47,42,50,42,30,0.00,40.00,12,5,18,0.00
2012-8-4,80,74,69,51,46,19,48,39,13,0.00,40.00,13,6,16,0.00
2012-8-5,81,75,71,53,44,26,53,34,17,0.00,40.00,14,6,20,0.00
2012-8-6,81,74,69,54,50,47,58,44,33,0.00,40.00,16,7,25,0.00
2012-8-7,84,78,73,52,49,48,44,38,31,0.00,40.00,10,4,19,0.00
2012-8-8,85,78,74,52,49,45,44,36,31,0.00,40.00,20,7,21,0.00
2012-8-9,83,78,74,60,52,41,62,40,28,0.00,40.00,13,6,17,0.00
2012-8-10,83,78,74,57,52,41,56,41,29,0.00,40.00,17,7,24,0.00
2012-8-11,81,75,72,57,52,46,57,45,35,0.00,40.00,17,7,20,0.12
2012-8-12,82,77,73,52,51,44,47,40,33,0.00,40.00,25,8,29,0.31
2012-8-13,83,76,69,55,48,43,54,38,31,0.00,40.00,28,10,29,0.11
2012-8-14,81,76,72,48,41,32,38,29,23,0.00,40.00,36,14,37,0.00
2012-8-15,78,73,68,58,45,30,61,39,20,0.00,40.00,13,6,23,0.00
2012-8-16,73,68,62,63,55,49,91,64,49,0.00,40.00,15,8,25,0.32
2012-8-17,68,64,62,63,60,55,96,89,70,0.00,40.00,15,8,18,0.00
2012-8-18,72,66,61,63,59,54,95,79,61,0.00,40.00,11,6,15,0.00
2012-8-19,76,70,64,60,57,55,82,64,56,0.00,40.00,12,5,15,0.00
2012-8-20,77,72,68,61,56,53,63,58,50,0.00,40.00,12,5,17,0.00
2012-8-21,71,69,68,64,57,53,83,65,57,0.00,40.00,17,6,19,1.31
2012-8-22,70,66,63,61,57,52,80,72,60,0.00,40.00,10,4,11,0.00
2012-8-23,68,64,62,61,59,56,93,84,78,0.00,40.00,11,5,11,0.00
2012-8-24,72,68,63,57,54,43,79,62,44,0.00,40.00,17,6,20,0.00
2012-8-25,76,69,65,57,52,0,70,57,7,0.00,40.00,24,7,29,0.00
2012-8-26,76,69,65,36,19,-4,31,17,6,0.00,40.00,24,12,34,0.00
2012-8-27,80,74,67,44,40,34,36,30,24,0.00,40.00,25,7,27,0.00
2012-8-28,78,74,72,47,39,31,36,29,21,0.00,40.00,12,6,14,0.00
2012-8-29,76,72,67,60,53,44,71,53,35,0.00,40.00,12,5,19,0.00
2012-8-30,69,65,62,62,58,54,94,77,64,0.00,40.00,13,7,26,0.27
2012-8-31,70,65,62,59,51,33,81,63,33,0.00,40.00,25,9,28,0.00
2012-9-1,71,66,62,36,32,28,34,29,25,0.00,40.00,34,21,38,0.00
2012-9-2,77,69,64,44,33,27,39,27,19,0.00,40.00,34,21,38,0.00
2012-9-3,77,71,68,50,45,39,50,40,32,0.00,40.00,24,10,27,0.00
2012-9-4,74,70,67,57,51,38,66,52,34,0.00,40.00,13,6,23,0.00
2012-9-5,78,69,66,50,45,38,53,42,34,0.00,40.00,16,6,17,0.00
2012-9-6,73,68,66,52,48,43,57,48,40,0.00,40.00,15,9,20,0.00
2012-9-7,74,70,64,52,49,44,57,47,42,0.00,40.00,15,6,19,0.00
2012-9-8,74,70,67,56,52,49,68,52,43,0.00,40.00,14,8,21,0.00
2012-9-9,68,64,59,61,58,47,96,80,64,0.00,40.00,23,14,30,0.01
2012-9-10,65,59,56,59,56,47,96,88,53,0.00,40.00,18,8,22,0.08
2012-9-11,63,59,56,60,57,52,96,92,79,0.00,40.00,15,5,15,0.00
2012-9-12,67,62,58,59,56,45,96,80,61,0.00,40.00,19,7,27,0.00
2012-9-13,71,67,63,46,40,30,52,38,23,0.00,40.00,29,17,32,0.00
2012-9-14,69,66,62,46,37,29,52,35,23,0.00,40.00,30,18,38,0.00
2012-9-15,67,64,62,39,34,27,43,32,24,0.00,40.00,26,15,29,0.00
2012-9-16,73,66,62,41,36,31,45,33,29,0.00,40.00,22,10,23,0.00
2012-9-17,73,65,61,43,33,29,43,31,22,0.00,40.00,26,11,29,0.00
2012-9-18,75,69,66,36,34,29,33,28,24,0.00,40.00,13,6,20,0.00
2012-9-19,75,70,66,43,38,31,41,31,26,0.00,40.00,11,6,14,0.00
2012-9-20,76,71,68,44,37,34,42,29,24,0.00,40.00,15,5,19,0.00
2012-9-21,76,72,69,40,36,32,32,27,23,0.00,40.00,16,7,19,0.00
2012-9-22,74,70,66,42,35,30,38,28,23,0.00,40.00,15,8,18,0.00
2012-9-23,73,70,65,36,32,30,29,25,21,0.00,40.00,27,16,31,0.00
2012-9-24,68,63,56,43,37,31,60,39,28,0.00,40.00,39,22,49,0.00
2012-9-25,63,58,55,39,36,19,50,44,22,0.00,40.00,57,32,60,0.00
2012-9-26,68,64,60,34,32,11,37,31,14,0.00,40.00,16,10,23,0.00
2012-9-27,69,64,60,45,37,30,56,38,30,0.00,40.00,15,8,18,0.00
2012-9-28,66,63,60,44,40,32,50,43,34,0.00,40.00,8,3,9,0.00
2012-9-29,70,66,63,41,39,31,44,36,27,0.00,40.00,15,4,16,0.00
2012-9-30,76,69,65,38,32,27,37,26,18,0.00,40.00,16,7,23,0.00
2012-10-1,76,72,69,28,26,24,21,17,15,0.00,40.00,19,10,23,0.00
2012-10-2,78,73,68,33,26,22,26,18,14,0.00,40.00,26,11,30,0.00
2012-10-3,68,64,57,40,30,25,53,30,21,0.00,40.00,50,32,56,0.03
2012-10-4,64,59,55,33,28,20,39,31,22,0.00,40.00,45,32,54,0.00
2012-10-5,70,64,58,28,21,8,31,20,11,0.00,40.00,42,14,52,0.00
2012-10-6,64,59,53,41,30,15,62,34,15,0.00,40.00,35,21,41,0.00
2012-10-7,68,59,53,49,38,31,70,49,31,0.00,40.00,28,12,35,0.00
2012-10-8,69,62,58,41,22,1,53,23,9,0.00,40.00,22,9,27,0.00
2012-10-9,66,60,54,41,15,1,62,20,11,0.00,40.00,27,11,33,0.00
2012-10-10,58,51,40,42,23,1,85,39,12,0.00,40.00,33,18,49,0.02
2012-10-11,40,37,35,38,34,30,94,89,77,0.00,40.00,48,26,56,0.44
2012-10-12,44,39,36,38,36,33,95,89,64,0.00,40.00,49,26,56,0.09
2012-10-13,56,53,48,36,31,19,50,43,28,0.00,40.00,24,16,29,0.00
2012-10-14,59,57,55,37,34,30,48,42,37,0.00,40.00,31,20,35,0.00
2012-10-15,65,61,58,35,31,22,42,32,24,0.00,40.00,18,11,24,0.00
2012-10-16,67,64,61,33,28,22,32,26,21,0.00,40.00,13,8,18,0.00
2012-10-17,65,62,59,39,29,26,48,28,24,0.00,40.00,21,15,26,0.00
2012-10-18,64,59,55,55,47,40,96,66,50,0.00,40.00,17,9,26,0.00
2012-10-19,68,63,58,50,29,14,76,30,16,0.00,40.00,17,7,18,0.00
2012-10-20,61,56,49,48,40,18,84,57,19,0.00,40.00,32,23,34,0.00
2012-10-21,55,47,42,43,40,17,94,79,22,0.00,40.00,35,24,47,0.00
2012-10-22,56,51,46,35,10,-12,59,23,6,0.00,40.00,39,21,41,0.00
2012-10-23,48,43,38,38,30,-5,92,66,12,0.00,40.00,39,25,41,0.02
2012-10-24,55,46,36,28,12,-13,73,31,6,0.00,40.00,46,25,54,0.02
2012-10-25,55,52,48,20,11,-4,28,20,10,0.00,40.00,22,10,23,0.00
2012-10-26,51,47,43,19,11,-9,33,25,8,0.00,40.00,27,20,30,0.00
2012-10-27,57,54,50,16,5,-8,20,14,8,0.00,40.00,20,15,22,0.00
2012-10-28,62,59,56,13,10,6,17,15,12,0.00,40.00,13,8,14,0.00
2012-10-29,64,61,59,18,15,9,18,16,13,0.00,40.00,7,5,9,0.00
2012-10-30,64,61,59,28,17,12,29,18,15,0.00,40.00,9,4,11,0.00
2012-10-31,63,60,56,34,19,7,44,21,13,0.00,40.00,9,5,11,0.00
2012-11-1,61,56,51,27,14,3,35,20,12,0.00,40.00,15,8,18,0.00
2012-11-2,55,54,52,23,13,4,32,20,13,0.00,40.00,16,8,17,0.00
2012-11-3,57,53,50,34,30,24,53,41,33,0.00,40.00,23,12,29,0.00
2012-11-4,58,55,52,26,22,19,36,27,22,0.00,40.00,27,17,31,0.00
2012-11-5,60,59,56,23,21,17,24,23,21,0.00,40.00,20,13,26,0.00
2012-11-6,63,60,58,31,24,22,33,24,21,0.00,40.00,13,7,14,0.00
2012-11-7,63,58,52,24,22,17,30,25,17,0.00,40.00,33,16,36,0.00
2012-11-8,55,47,40,43,36,20,93,69,30,0.00,40.00,66,28,70,0.18
2012-11-9,41,34,28,38,32,27,95,92,89,0.00,40.00,71,51,76,2.02
2012-11-10,28,27,25,26,24,22,93,92,90,0.00,40.00,74,24,60,0.02
2012-11-11,33,30,24,21,11,4,89,47,29,0.00,40.00,21,14,24,0.00
2012-11-12,47,39,32,7,-11,-38,34,15,2,0.00,40.00,20,14,21,0.00
2012-11-13,50,48,44,16,-7,-38,26,11,2,0.00,40.00,23,16,26,0.00
2012-11-14,56,52,49,15,10,-100,24,19,15,0.00,40.00,13,7,14,0.00
2012-11-15,54,51,46,40,15,-3,70,27,10,0.00,40.00,18,11,21,0.01
2012-11-16,49,46,44,45,38,21,95,76,36,0.00,40.00,32,14,34,0.00
2012-11-17,44,42,40,42,39,30,94,89,64,0.00,40.00,36,18,43,0.04
2012-11-18,47,44,39,39,32,21,95,66,36,0.00,40.00,30,15,35,0.02
2012-11-19,53,50,46,39,26,11,68,42,18,0.00,40.00,13,7,14,0.00
2012-11-20,56,52,50,35,21,4,55,32,14,0.00,40.00,8,4,10,0.00
2012-11-21,58,54,50,29,14,-9,39,22,7,0.00,40.00,22,12,24,0.00
2012-11-22,55,51,49,32,26,15,52,39,20,0.00,40.00,16,10,17,0.00
2012-11-23,57,51,49,30,24,17,48,35,21,0.00,40.00,17,12,19,0.00
2012-11-24,59,57,56,29,23,16,34,27,19,0.00,40.00,15,9,17,0.00
2012-11-25,59,55,51,31,26,24,39,33,26,0.00,40.00,18,10,19,0.00
2012-11-26,52,50,49,27,26,24,39,37,36,0.00,40.00,19,13,22,0.00
2012-11-27,53,50,49,28,25,23,41,37,34,0.00,40.00,12,8,17,0.00
2012-11-28,53,49,44,34,27,21,69,43,33,0.00,40.00,25,14,33,0.00
2012-11-29,48,45,42,44,42,36,94,88,64,0.00,40.00,48,32,55,0.12
2012-11-30,50,45,43,45,42,32,95,91,50,0.00,40.00,37,28,47,0.40
2012-12-1,54,47,42,42,38,26,94,71,41,0.00,40.00,37,21,46,0.00
2012-12-2,51,46,41,43,37,25,92,72,37,0.00,40.00,47,27,60,0.02
2012-12-3,55,48,44,43,33,6,92,66,15,0.00,40.00,37,23,45,0.01
2012-12-4,62,55,49,36,22,4,52,30,10,0.00,40.00,19,12,21,0.00
2012-12-5,63,59,53,35,19,-4,46,24,7,0.00,40.00,29,16,36,0.00
2012-12-6,53,49,48,40,32,-100,71,56,51,0.00,40.00,36,15,38,0.00
2012-12-7,52,48,47,36,31,21,63,52,31,0.00,40.00,19,9,22,0.00
2012-12-8,52,49,47,31,18,7,53,30,18,0.00,40.00,11,7,16,0.00
2012-12-9,53,47,40,22,16,8,45,29,19,0.00,40.00,24,10,28,0.00
2012-12-10,49,46,44,22,19,12,40,34,25,0.00,40.00,20,8,23,0.00
2012-12-11,53,46,40,22,16,11,42,30,24,0.00,40.00,38,21,46,0.00
2012-12-12,47,40,33,32,19,7,91,48,24,0.00,40.00,52,27,55,0.03
2012-12-13,35,33,30,33,31,29,95,93,89,0.00,40.00,49,20,56,0.07
2012-12-15,33,30,25,31,24,12,95,80,42,0.00,40.00,36,20,52,0.04
2012-12-16,38,35,28,37,33,26,95,93,91,0.00,40.00,31,21,44,0.29
2012-12-17,45,39,37,40,36,28,96,89,59,0.00,40.00,29,20,33,0.00
2012-12-18,37,34,21,36,32,15,95,94,90,0.00,40.00,50,28,82,0.98
2012-12-19,28,25,20,15,3,-23,80,40,9,0.00,40.00,24,17,69,0.15
2012-12-20,51,40,28,1,-9,-42,17,12,2,0.00,40.00,22,14,25,0.00
2012-12-21,50,47,46,6,-4,-10,18,11,9,0.00,40.00,17,8,19,0.00
2012-12-22,46,41,33,25,6,-6,67,26,11,0.00,40.00,35,18,40,0.00
2012-12-23,43,35,31,33,29,19,92,81,38,0.00,40.00,41,27,53,0.02
2012-12-24,43,36,31,38,30,11,92,80,28,0.00,40.00,58,38,73,0.27
2012-12-25,42,37,32,29,16,4,72,45,20,0.00,40.00,34,17,40,0.00
2012-12-26,36,31,28,31,25,15,94,81,42,0.00,40.00,58,41,69,2.71
2012-12-28,32,29,26,20,15,13,62,55,51,0.00,40.00,37,11,48,0.03
2012-12-29,31,29,26,29,26,20,95,88,69,0.00,40.00,35,10,54,0.00
2012-12-30,27,25,24,25,23,19,93,91,77,0.00,40.00,32,20,47,0.01
2012-12-31,33,28,24,24,19,14,93,70,55,0.00,40.00,25,8,33,0.00
2013-1-1,34,27,25,21,11,1,78,52,24,0.00,40.00,29,16,34,0.00